Location: Unspecified
(37.3822°N, 0.0000°E)
Time: 16:57:48
(UTC+00:00)

COSMOS 2565 - Visible Passes

Search period start: 04 April 2026 00:00
Search period end: 14 April 2026 00:00
Orbit: 901 x 910 km, 67.1° (Epoch: 29 March)

Date Brightness Start Highest point End Pass type
(mag) Time Alt. Az. Time Alt. Az. Time Alt. Az.
9 Apr ? 04:43:20 10° SE 04:46:09 14° ESE 04:48:58 10° ENE visible
10 Apr ? 04:45:51 10° SSE 04:50:02 20° ESE 04:54:13 10° ENE visible
11 Apr ? 04:48:57 10° SSE 04:53:57 28° ESE 04:58:57 10° NE visible
12 Apr ? 04:52:25 10° S 04:57:54 39° ESE 05:03:27 10° NE visible
13 Apr ? 04:56:05 10° S 05:01:55 55° ESE 05:07:47 10° NE visible
